Regional Weather Roundup
Issued by NWS Northern Indiana

Home | Current Version | Previous Version | Text Only | Print | Product List | Glossary Off
Versions: 1 2 3 4 5 6 7 8 9 10 11 12 13 14 15 16 17 18 19 20 21 22 23 24 25 26 27 28 29 30 31 32 33 34 35 36 37 38 39 40 41 42 43 44 45 46 47 48 49 50

000
ASUS43 KIWX 272210
RWRIWX

KIWX WEATHER ROUNDUP
NATIONAL WEATHER SERVICE NORTHERN INDIANA
600 PM EDT MON JUL 27 2015

NOTE: "FAIR" INDICATES FEW OR NO CLOUDS BELOW 12,000 FEET WITH NO
SIGNIFICANT WEATHER AND/OR OBSTRUCTIONS TO VISIBILITY.

* THESE STATIONS ARE NOT UNDER NWS QUALITY CONTROL. THEY ALSO MAY NOT
  REPORT WEATHER SUCH AS PRECIPITATION OR FOG.

INZ001>027-272300-
NORTHERN INDIANA

CITY           SKY/WX    TMP DP  RH WIND       PRES   REMARKS
GARY*          MOSUNNY   81  68  65 NE8       29.98F
VALPARAISO     FAIR      86  63  45 E8        29.99F
MICHIGAN CITY* FAIR      82  64  54 N8        29.99F
LAPORTE*       FAIR      87  67  50 E6        30.01S
KNOX*          FAIR      86  61  42 E10       29.98S
SOUTH BEND     FAIR      87  61  41 E8        30.01S
ELKHART*       FAIR      86  61  42 NE8       30.01F
GOSHEN         FAIR      85  64  49 E7        30.00F
MONTICELLO*    FAIR      84  71  65 E8        29.96F
LOGANSPORT*    FAIR      84  57  39 NE6       29.98F
ROCHESTER*     FAIR      88  61  40 E5        30.00S
WARSAW*        FAIR      86  64  48 E8        30.00F
ANGOLA*        SUNNY     84  81  89 E8        30.01F HX  98
FORT WAYNE     PTSUNNY   85  61  44 E9        30.00S
HUNTINGTON*    FAIR      84  60  42 E5        29.98F
PERU/GRISSOM   FAIR      85  66  53 E10       29.97F
MARION*        PTSUNNY   82  66  57 E8        29.99S HAZE

$$
INZ028>050-272300-
CENTRAL INDIANA

CITY           SKY/WX    TMP DP  RH WIND       PRES   REMARKS
LAFAYETTE      FAIR      83  72  69 E9        29.94F
KOKOMO*        FAIR      84  68  58 E10       29.97F
MUNCIE*        FAIR      82  71  69 SE8       29.98F
INDIANAPOLIS   FAIR      88  69  53 CALM      29.94F

$$
MIZ043>046-050>051-056>058-064>065-071>073-077>080-272300-
SOUTHWEST LOWER MICHIGAN

CITY           SKY/WX    TMP DP  RH WIND       PRES   REMARKS
BATTLE CREEK   FAIR      87  63  44 VRB6      30.02F
BENTON HARBOR  FAIR      84  66  54 N6        30.00S
COLDWATER*     FAIR      82  61  49 E8        30.01F
HILLSDALE*     FAIR      84  58  40 E8        30.04S
HOLLAND        FAIR      89  62  40 E6        30.01F
GRAND RAPIDS   FAIR      87  61  41 E6        30.02F
KALAMAZOO      FAIR      87  63  44 VRB5      30.02F
STURGIS*       FAIR      82  63  51 E9        30.01F
THREE RIVERS*  FAIR      85  60  43 SE6       30.01F

$$
OHZ001>008-015>018-024>025-272300-
NORTHWEST OHIO

CITY           SKY/WX    TMP DP  RH WIND       PRES   REMARKS
DEFIANCE       FAIR      87  62  43 E9        30.00F
FINDLAY        FAIR      87  60  40 E8        29.98F
TOLEDO EXPRESS FAIR      85  60  42 NE10      30.00F
TOLEDO METCALF FAIR      85  60  42 E8        30.01F
LIMA           FAIR      85  60  42 E7        30.00S

$$
AND FOR LAKE MICHIGAN COASTAL AND OPEN LAKE BUOY OBSERVATIONS

STATION/POSITION TEMP    WIND        PRES    VSBY  WAVE
                 AIR SEA DIR/SP/G                  HT/PER
                 (F)     (DEG/KT/KT) (MB)    (MI)  (FT/S)
CALUMET HARBOR    80      10/  9/ 12   N/A
MICHIGAN CITY     76     360/ 11/ 12   N/A
BURNS HARBOR      76      30/ 10/ 13 1016.3S
SAINT JOSEPH      79     360/  9/ 13 1015.9F
4 MI NW BRIDGMAN  76 76   60/ 10/ 12   N/A           1/ 2
MICHIGAN CITY     76 76   40/ 10/ 12   N/A           1/ 2

$$
&&



USA.gov is the U.S. government's official web portal to all federal, state and local government web resources and services.